Theta_e
295 296 297 297 298 299 299 300 301 301 302 303 304 305 306 307 309 311 312 312 313 314 315 317 317 317 316 315 312 310 309 309 309 309 311 311 310 309 308 308 308 307 307 307 306 306 305 305 305 305 305 305 304 304 304 304 304 304 304 304 304 304 304 303 303 303 303 302 301 301 300 299 298 297 295 293 291 291 290 290 290 290 290 290 290
294 295 296 297 297 297 298 299 300 300 301 302 303 304 306 308 309 311 312 312 313 313 314 315 316 315 314 311 310 309 308 309 309 310 310 310 309 308 307 307 306 306 306 305 305 305 304 304 304 304 303 303 302 302 302 302 302 302 301 301 301 300 300 300 300 300 300 299 297 296 295 293 292 292 291 291 290 290 290 290 290 290 290 290 290
293 294 295 296 296 297 297 298 299 299 300 301 302 303 305 307 309 309 310 311 311 312 313 314 314 313 311 309 308 308 308 308 309 310 310 309 308 307 306 306 305 305 304 304 304 304 304 303 303 302 302 301 301 301 300 300 300 299 299 298 298 298 297 297 297 297 296 295 293 292 291 290 290 289 289 290 290 290 289 290 290 289 289 289 289
292 293 294 294 295 295 296 296 297 298 299 300 301 302 303 305 307 308 309 309 310 310 311 312 311 310 309 308 307 307 308 308 309 309 308 307 306 306 305 305 304 304 304 303 303 303 303 302 302 301 301 300 300 300 299 299 298 298 297 297 296 296 295 295 294 293 292 291 290 289 289 289 289 289 289 289 289 289 289 289 289 289 289 289 289
291 293 293 293 293 294 295 295 296 297 298 299 300 301 302 303 304 306 307 308 308 309 309 309 308 308 307 307 307 307 308 308 308 307 306 305 305 304 304 304 304 303 303 302 302 302 301 301 300 300 299 299 299 299 298 297 297 296 295 294 294 293 292 291 291 290 290 289 289 288 289 289 289 289 289 289 289 289 289 289 289 289 289 289 289
291 292 293 293 292 292 293 294 295 295 296 297 299 300 301 302 303 304 305 306 307 307 307 306 306 306 305 306 306 306 307 307 306 305 305 304 304 303 303 303 303 302 302 301 301 300 300 300 299 299 298 298 297 297 296 295 294 293 292 291 291 290 290 289 289 289 289 289 288 288 288 288 288 289 289 289 289 289 290 290 289 289 289 289 288
290 291 292 292 292 291 292 292 293 294 295 296 297 299 300 300 302 303 304 305 305 305 305 305 304 304 305 305 306 306 306 306 305 304 304 303 303 303 303 302 302 301 301 300 299 299 298 298 297 296 296 295 294 293 293 292 291 290 290 289 289 289 289 289 288 288 288 288 288 288 288 288 288 288 288 288 288 289 289 290 290 289 289 289 288
289 290 291 291 291 291 291 291 292 293 294 295 296 298 298 299 300 301 302 303 303 304 304 304 303 303 304 305 305 306 305 304 304 303 303 303 302 302 301 301 301 300 299 298 298 297 296 295 294 293 292 292 291 290 290 289 289 289 289 288 288 288 288 288 288 288 288 288 288 288 288 288 288 288 288 288 289 289 288 288 289 289 289 288 288
288 288 290 290 290 290 290 290 291 292 293 295 296 296 297 298 299 300 301 302 302 303 303 303 303 304 304 305 305 304 304 303 303 303 302 302 301 300 300 299 299 298 297 296 295 294 293 292 291 291 290 289 289 289 288 288 288 288 288 288 288 288 288 288 288 288 288 288 288 288 288 288 288 288 288 288 288 288 288 287 288 288 288 288 288
286 287 288 288 288 289 289 290 291 291 293 294 295 296 296 297 298 298 299 300 301 302 302 302 303 304 304 304 303 303 302 302 302 301 301 300 300 299 298 297 296 296 295 294 293 292 291 290 289 289 288 288 288 288 288 288 288 288 288 287 287 287 287 287 288 288 288 288 288 287 288 288 288 288 288 287 287 287 287 287 287 288 288 288 288
285 285 286 287 287 287 288 289 290 291 292 293 294 295 296 296 297 297 298 299 299 300 301 301 302 302 302 302 301 301 301 301 301 300 299 298 297 297 296 295 294 293 293 292 291 289 289 288 288 288 287 287 287 287 288 288 288 288 288 287 287 287 287 287 287 287 287 288 287 287 287 287 287 287 287 287 287 287 287 287 287 287 287 288 288
283 284 284 286 286 287 287 288 289 290 291 292 293 294 295 295 296 296 297 297 298 298 299 299 299 300 300 300 299 299 299 299 299 298 297 295 295 294 293 292 291 290 290 289 289 288 288 288 288 287 287 287 287 287 287 287 287 287 287 287 287 287 287 287 287 287 287 287 287 287 286 286 286 286 286 286 286 286 286 286 286 287 287 286 286
282 282 283 284 285 286 286 287 288 289 290 291 292 293 294 294 294 295 296 296 296 296 296 297 297 297 297 297 297 297 297 296 295 294 293 292 291 291 290 290 289 289 288 288 288 288 287 287 287 287 287 287 287 287 287 287 287 287 287 287 287 287 287 287 287 286 286 286 286 286 286 286 286 286 286 286 286 286 286 286 286 286 286 286 285
281 281 282 283 284 285 286 286 287 288 288 290 291 292 293 293 293 294 294 295 295 295 295 295 295 295 295 295 295 295 294 292 291 290 290 289 289 289 288 288 288 288 287 287 287 287 287 287 287 287 286 286 286 286 286 286 286 286 286 286 286 286 286 286 286 286 285 285 285 285 285 285 285 285 285 285 285 285 285 285 285 285 285 285 284
280 281 281 282 283 284 285 285 286 287 287 288 290 291 292 292 292 293 293 293 293 293 293 293 293 293 292 292 292 292 291 289 288 288 288 288 288 288 287 287 287 287 287 286 286 286 286 286 286 286 286 286 285 285 286 286 286 286 286 286 286 286 285 285 285 285 285 285 284 284 284 284 284 284 284 284 284 284 284 284 284 285 284 284 284
279 280 280 281 282 283 284 285 285 286 287 287 288 290 291 291 291 291 292 292 292 291 291 291 291 291 291 290 290 289 288 287 287 286 287 287 287 287 287 287 286 286 286 286 286 286 286 285 285 285 285 285 285 285 285 285 285 285 285 285 285 285 285 285 284 284 284 284 284 284 284 284 284 284 284 284 284 284 284 284 284 284 284 284 285
279 279 279 280 281 282 283 284 284 285 286 286 287 289 289 290 290 290 290 290 290 290 290 290 290 289 289 289 288 287 286 286 285 286 286 286 286 286 286 286 286 286 286 285 285 285 285 285 285 285 285 285 285 285 285 285 285 285 285 285 285 284 284 284 284 284 284 284 284 284 284 284 283 283 283 284 284 284 283 283 284 284 284 284 284
277 278 279 279 280 281 282 283 283 284 285 285 285 287 288 289 289 289 289 289 289 289 289 289 288 288 287 287 286 286 285 285 285 285 285 285 285 285 285 285 285 285 285 285 285 285 285 285 284 284 284 284 285 284 284 285 284 284 284 284 284 284 284 284 284 284 284 284 284 283 283 283 283 283 283 283 283 283 283 283 283 283 283 283 283
276 277 278 279 279 280 281 282 283 283 284 284 284 286 287 288 288 288 288 288 288 287 287 287 287 286 286 285 285 285 285 284 284 285 284 284 285 285 285 285 285 285 285 285 285 284 284 284 284 284 284 284 284 284 284 284 284 284 284 284 284 284 284 284 284 283 283 283 283 283 283 283 283 283 283 283 283 283 283 283 283 283 283 283 283
275 276 277 278 279 279 280 282 282 282 283 284 284 284 285 286 287 286 286 286 286 285 285 285 285 285 285 285 285 285 285 284 284 284 284 284 284 284 284 285 285 285 285 284 284 284 284 284 284 284 284 284 284 284 284 284 284 284 284 284 284 284 284 284 284 283 283 283 283 283 283 283 283 283 283 282 282 282 282 282 282 282 282 282 282
274 275 277 278 278 278 280 281 281 282 283 283 283 283 284 284 284 284 284 284 284 284 284 284 284 284 284 284 284 284 284 284 284 284 284 284 284 284 284 284 284 284 284 284 284 284 284 284 284 284 284 284 284 284 284 284 284 283 283 283 283 283 283 283 283 283 283 283 283 283 283 283 282 282 282 282 282 282 282 282 282 282 282 282 282
273 274 276 277 277 278 279 280 281 281 282 282 282 283 283 282 282 283 283 283 283 283 284 284 284 284 284 284 284 284 284 284 284 284 283 283 283 283 283 283 284 284 284 284 284 284 284 284 284 284 284 284 284 283 283 283 283 283 283 283 283 283 283 283 283 283 283 282 282 282 282 282 282 282 282 282 282 282 282 282 282 281 281 281 281
272 273 275 276 277 278 279 279 280 281 281 281 281 282 283 282 282 282 283 283 283 283 284 284 284 284 284 284 284 284 284 284 284 283 283 283 283 283 283 283 283 283 283 284 284 284 284 284 284 283 283 283 283 283 283 283 283 283 283 282 283 283 282 282 282 282 282 282 282 282 282 282 282 282 282 282 282 282 282 281 281 281 281 281 281
270 272 274 275 276 277 278 278 279 280 281 281 281 282 282 282 282 282 282 283 283 284 284 284 284 284 284 284 284 284 284 284 284 283 283 283 283 283 283 283 283 283 283 283 283 283 283 283 283 283 283 283 282 282 282 282 282 282 282 282 282 282 282 282 282 282 282 282 282 282 282 282 282 282 282 282 281 281 281 281 281 281 281 281 281
269 271 273 274 275 276 277 277 279 280 280 280 281 281 282 282 282 282 283 283 283 284 284 284 284 284 284 284 283 283 283 283 283 283 283 283 283 283 283 283 283 283 283 283 283 283 283 283 282 282 282 282 282 282 282 282 282 282 282 282 282 282 282 282 282 282 282 282 282 282 282 282 281 281 281 281 281 281 281 281 281 281 281 281 280
268 270 272 273 274 276 276 276 278 279 280 280 280 281 281 282 282 283 283 283 283 284 283 283 284 283 283 283 283 283 283 283 283 283 283 283 283 283 283 283 282 282 282 282 282 282 282 282 282 282 282 282 282 282 282 282 282 282 282 282 282 282 282 282 282 282 282 281 281 281 281 281 281 281 281 281 280 280 280 280 280 280 280 280 280
268 270 271 272 273 274 275 275 277 279 279 280 280 280 281 282 282 282 283 283 283 283 283 283 283 283 283 283 283 283 282 282 282 282 282 282 282 282 282 282 282 282 282 282 282 282 281 281 281 281 281 281 281 281 282 282 282 282 282 281 281 281 281 281 281 281 281 281 281 281 280 280 280 280 280 280 280 280 280 280 280 280 280 280 280
268 269 270 271 272 273 274 275 277 278 279 279 280 280 280 281 282 282 282 282 282 283 283 283 282 283 283 283 283 282 282 282 282 282 282 282 282 282 282 282 282 282 281 281 281 281 281 281 281 281 281 281 281 281 281 281 281 281 281 281 281 281 281 281 281 280 280 280 280 280 280 280 279 279 279 279 279 279 279 279 279 279 280 280 280
267 268 269 270 272 273 273 275 276 277 278 279 279 280 280 280 281 282 282 282 282 282 282 282 282 282 282 282 282 282 282 282 282 282 282 282 282 282 282 282 281 281 281 281 281 281 281 281 281 281 281 281 281 281 281 281 281 281 281 281 280 280 280 280 280 280 280 279 279 279 279 279 279 279 279 279 278 278 278 279 279 279 279 279 279
267 268 268 270 272 273 273 274 275 276 277 278 279 280 280 280 280 281 281 281 281 281 281 281 281 281 281 281 281 281 282 282 282 282 282 282 282 281 281 281 281 281 281 281 281 281 281 281 281 281 281 281 281 280 280 280 280 280 280 280 280 280 279 279 279 279 279 279 278 278 278 278 278 278 278 278 278 278 278 278 278 278 278 278 279
267 267 268 269 271 272 273 274 275 276 277 277 278 279 279 279 279 280 280 280 279 279 280 280 280 280 281 281 281 281 282 282 282 282 282 282 281 281 281 281 281 281 281 281 281 281 281 281 281 281 280 280 280 280 280 280 279 279 279 279 279 279 279 278 278 278 278 278 278 278 277 277 277 277 278 278 278 277 277 277 277 277 277 278 278
267 267 267 269 271 272 273 273 274 275 276 277 277 278 278 279 279 279 279 279 279 279 279 279 279 280 280 280 281 281 281 281 281 281 281 281 281 281 281 281 281 281 281 280 280 280 280 280 280 280 280 280 280 279 279 279 279 279 278 278 278 278 278 278 278 278 277 277 277 277 277 277 277 277 277 277 277 277 277 277 277 277 277 277 277
267 267 267 268 270 272 273 273 274 275 276 276 277 277 278 279 279 279 279 279 279 279 279 280 280 280 280 280 280 280 280 280 279 280 280 280 280 280 280 280 280 280 280 280 280 280 280 280 279 279 279 279 279 279 278 278 278 278 277 277 277 277 277 277 277 277 277 276 276 276 276 276 276 276 276 276 276 276 276 276 276 276 276 276 276
267 267 267 268 269 271 272 273 274 275 275 275 276 276 277 277 278 278 277 277 277 278 278 279 279 279 280 280 280 279 279 279 278 279 279 279 279 279 279 279 280 280 280 280 279 279 279 279 278 278 278 278 278 278 277 277 277 277 277 277 277 276 276 276 276 276 276 276 276 276 276 276 276 276 275 275 275 275 275 275 275 275 275 275 275
267 267 268 268 269 270 272 273 274 274 275 275 275 275 275 276 276 276 276 276 276 277 277 278 278 278 278 279 279 279 279 278 278 278 278 278 279 279 279 279 279 279 278 278 278 278 278 277 277 277 277 277 277 277 276 276 276 276 276 276 276 276 276 276 276 275 275 275 275 275 275 275 275 275 274 274 274 274 274 274 274 274 274 274 274
266 267 268 268 269 270 271 272 273 273 274 274 274 274 275 275 275 275 275 275 276 277 277 277 277 277 277 277 277 277 278 278 278 278 278 278 278 278 278 277 277 277 277 277 277 276 276 276 276 276 276 276 276 276 276 276 275 275 275 275 275 275 275 275 275 275 275 275 274 274 274 274 274 273 273 273 273 273 273 273 272 272 272 272 273
266 267 268 268 268 269 270 271 272 272 273 273 273 273 274 274 274 274 274 275 275 276 276 277 277 277 277 277 277 277 277 277 277 277 277 277 276 276 276 276 276 276 276 276 276 276 275 275 275 275 275 275 275 275 275 275 275 275 274 274 274 274 274 274 274 274 274 274 273 273 273 273 273 273 272 272 272 272 272 272 272 272 272 271 272
266 267 268 268 268 269 269 270 271 271 272 272 272 272 272 272 272 273 274 275 275 275 276 276 276 276 276 276 276 276 276 276 276 276 275 275 275 275 275 275 274 275 275 275 275 275 275 274 274 274 274 274 274 274 274 274 274 274 273 273 274 274 274 274 273 273 273 273 272 272 272 272 272 272 272 272 272 271 271 271 271 271 271 271 271
266 267 267 268 268 268 269 269 270 270 270 270 270 270 270 271 272 273 274 274 275 275 275 275 275 275 275 275 275 275 275 275 275 274 274 274 274 274 274 274 274 274 274 274 274 274 274 274 274 273 273 273 273 273 273 273 273 273 273 273 273 273 273 273 273 272 272 272 272 272 272 271 271 271 271 271 271 271 271 271 270 270 270 270 270
265 266 267 267 267 267 267 268 268 268 268 268 269 269 270 271 271 272 273 274 274 274 274 274 274 274 274 274 273 273 273 273 273 273 273 273 273 273 273 273 273 273 273 273 273 273 273 273 273 273 273 273 273 273 273 272 272 272 272 272 272 272 272 272 272 272 272 271 271 271 271 271 271 271 271 271 270 270 270 270 270 270 270 270 270
264 265 265 266 266 266 266 266 267 267 267 268 268 269 269 270 271 271 272 272 273 273 273 273 273 272 272 272 272 272 272 272 272 272 272 272 272 272 272 272 272 272 272 272 272 272 272 272 272 272 272 272 272 272 272 272 272 272 272 271 271 271 271 271 271 271 271 271 271 271 270 270 270 270 270 270 270 270 270 269 269 269 269 269 269
263 264 264 264 265 265 265 266 266 267 267 268 268 269 269 269 270 270 271 271 271 271 271 271 271 271 271 271 270 270 270 270 271 271 271 271 271 271 271 271 271 271 271 271 271 271 271 271 271 271 271 271 271 271 271 271 271 271 271 271 271 270 270 270 270 270 270 270 270 270 270 270 270 270 270 270 270 269 269 269 269 269 269 268 268
263 263 263 264 264 264 265 266 266 267 267 267 268 268 269 269 269 270 270 270 270 270 270 270 270 270 270 269 269 269 270 270 270 270 270 270 270 270 271 271 271 271 271 271 271 271 271 271 271 271 271 271 271 271 270 270 270 270 270 270 270 270 270 270 270 270 270 270 270 270 270 270 270 270 269 269 269 269 269 269 269 268 268 268 268
263 263 263 264 264 264 265 265 266 266 267 267 267 268 268 268 268 269 269 269 269 269 269 269 269 269 269 269 269 269 269 269 269 269 269 270 270 270 270 270 270 270 270 270 270 270 270 270 270 270 270 270 270 270 270 270 270 270 270 270 269 269 269 269 269 269 270 270 269 269 269 269 269 269 269 269 269 269 269 268 268 268 267 267 267
263 263 263 264 264 264 264 265 265 266 266 266 267 267 267 267 267 267 267 268 268 268 268 268 268 268 268 268 268 268 269 269 269 269 269 269 269 269 269 269 269 269 269 269 269 269 269 269 269 269 269 269 269 269 269 269 269 269 269 269 269 269 269 269 269 269 269 269 269 269 269 269 268 268 268 268 268 268 268 268 267 267 267 267 267
262 263 263 263 264 264 264 264 265 265 265 265 266 266 266 266 266 266 266 266 267 267 267 267 267 267 267 268 268 268 268 268 268 268 268 268 268 268 268 268 268 269 269 269 269 269 269 269 269 268 268 268 268 268 268 268 268 268 268 268 268 268 268 268 268 268 268 268 268 268 268 268 268 268 268 268 268 267 267 267 267 267 266 266 266
262 262 263 263 263 263 264 264 264 264 264 265 265 265 265 266 266 266 266 266 266 266 266 266 267 267 267 267 267 267 267 267 268 268 268 268 268 268 268 268 268 268 268 268 268 268 268 268 268 268 268 268 268 268 267 267 267 267 267 267 267 268 268 268 268 268 268 267 268 268 268 267 267 267 267 267 267 267 267 267 267 266 266 265 265
262 262 262 262 263 263 263 263 264 264 264 264 264 265 265 265 265 265 266 266 266 266 266 266 266 266 266 266 266 266 267 267 267 267 267 267 267 267 267 267 267 267 267 267 267 267 267 267 267 267 267 267 267 267 267 267 267 267 267 267 267 267 267 267 267 267 267 267 267 267 267 267 267 267 267 267 267 266 266 266 266 266 265 265 265
262 262 262 262 262 263 263 263 263 263 263 264 264 264 264 265 265 265 265 265 265 265 265 265 266 266 266 266 266 266 266 266 266 266 266 267 267 267 267 267 267 267 266 266 266 266 266 266 266 267 267 267 267 267 267 267 267 267 267 267 267 267 267 267 267 267 267 267 267 266 266 266 266 266 266 266 266 266 266 266 266 265 265 265 265
262 262 262 262 262 262 263 263 263 263 263 263 264 264 264 264 265 265 265 265 265 265 265 265 265 265 265 265 265 266 266 266 266 266 266 266 266 266 266 266 266 266 266 266 266 266 266 266 266 266 266 266 266 267 267 267 267 266 266 266 266 266 266 266 266 266 266 266 266 266 266 266 266 266 266 266 266 266 265 265 265 265 265 265 265
262 262 262 262 262 263 263 263 263 263 263 263 263 264 264 264 264 264 264 265 265 265 265 265 265 265 265 265 265 266 266 266 266 266 266 266 266 266 266 266 266 266 266 266 266 266 266 266 266 266 266 266 266 266 266 266 266 266 266 266 266 266 266 266 266 266 266 266 266 266 265 265 266 266 266 266 265 265 265 265 265 264 264 265 264
Wind_Speed
14 12 11 11 12 12 12 12 12 12 13 13 14 14 13 14 15 17 20 22 24 26 30 34 37 37 36 36 35 32 29 27 24 22 22 21 20 20 20 20 20 19 19 19 19 18 17 15 14 13 13 12 11 11 10 10 10 10 10 9 8 8 7 6 7 8 9 10 11 11 12 12 11 9 9 8 8 7 7 7 7 8 9 11 12
19 15 13 12 12 14 14 13 13 13 14 14 14 13 12 13 16 19 22 24 26 27 29 32 36 37 37 36 34 32 30 27 25 24 23 22 21 22 22 22 21 20 20 19 19 19 17 16 14 13 13 12 10 10 9 9 9 9 9 8 7 7 6 6 6 6 8 8 8 9 10 8 6 4 3 3 2 3 5 6 7 8 10 11 12
23 19 16 13 12 14 15 15 14 14 14 15 16 14 13 14 17 20 22 25 27 29 30 31 33 36 37 36 34 32 30 27 26 24 23 22 22 23 24 23 22 21 20 20 20 19 18 16 15 14 13 12 11 11 10 9 9 9 9 9 8 8 7 7 7 7 7 6 5 6 5 2 1 1 2 2 3 4 5 7 8 9 11 12 13
25 22 18 15 14 14 16 16 16 15 15 15 17 17 16 15 17 20 22 23 25 28 30 31 33 36 37 36 34 32 30 28 26 24 23 23 23 24 24 23 22 21 20 20 20 19 18 17 16 15 14 13 12 11 11 10 10 9 9 9 9 8 7 6 5 5 6 5 4 4 3 2 2 3 5 5 5 6 7 8 9 11 13 14 14
28 25 21 18 16 16 16 17 18 18 17 17 17 18 18 18 18 20 22 23 25 26 28 29 32 35 36 35 34 32 29 27 25 23 23 23 22 23 23 23 22 21 21 21 20 19 18 17 17 16 15 14 13 12 11 10 10 9 8 7 6 5 4 4 5 5 6 6 6 5 3 3 3 4 5 6 5 6 7 9 11 13 15 16 16
30 28 24 20 18 18 18 18 18 19 19 19 18 18 19 20 20 21 22 22 24 25 27 28 30 32 34 34 33 30 27 25 24 23 22 22 22 22 23 23 23 23 22 21 21 19 18 18 17 16 15 14 13 12 11 10 8 7 6 5 5 6 6 8 9 8 7 7 6 5 4 5 5 5 8 10 9 8 7 7 10 15 17 18 19
29 28 25 21 19 19 19 20 19 19 20 20 19 20 20 20 21 21 22 23 24 25 27 29 30 32 33 33 31 28 26 25 23 22 22 23 23 24 24 24 25 24 23 22 21 19 18 17 16 14 13 13 12 11 10 8 8 7 7 8 9 9 9 9 9 7 6 6 5 4 5 6 7 7 10 12 11 12 12 11 12 17 19 21 23
28 27 25 22 20 19 19 20 20 19 20 20 20 20 20 20 21 22 23 24 25 27 28 30 32 32 32 32 30 28 27 26 24 24 25 25 25 25 26 26 26 25 23 21 20 18 17 16 14 13 12 11 11 10 10 10 10 11 11 11 10 10 9 8 8 6 6 6 5 6 6 7 8 9 10 12 12 15 18 19 19 21 22 22 23
26 25 23 21 20 20 19 20 20 19 19 20 20 20 20 20 21 22 24 25 27 28 30 31 31 31 31 30 29 28 27 26 26 26 26 27 27 27 27 27 26 25 23 21 19 17 16 15 14 13 13 13 13 13 14 13 12 12 12 11 10 9 8 7 6 6 6 6 6 6 7 7 9 11 12 14 16 18 20 20 21 23 23 22 22
23 22 22 20 20 20 19 18 19 19 19 19 20 20 21 21 22 23 25 26 28 29 30 31 31 31 31 30 29 28 27 26 27 27 27 27 27 27 26 25 24 23 22 21 19 17 16 16 16 16 16 16 16 16 15 14 13 12 11 10 9 7 7 6 5 5 5 5 6 7 8 9 11 12 14 15 16 17 19 21 22 24 26 25 24
21 20 20 19 19 20 19 17 17 18 18 19 20 20 21 22 23 24 25 27 28 30 31 31 31 30 30 30 29 28 28 28 27 27 26 26 26 26 26 24 23 21 20 20 19 19 19 19 20 19 18 17 16 15 14 13 12 11 9 8 7 6 6 5 5 5 5 6 7 8 9 10 11 13 13 14 15 17 19 21 23 24 27 29 28
20 19 18 18 18 19 19 16 15 15 17 18 19 20 21 22 23 25 26 28 29 29 30 30 30 29 29 29 29 28 28 28 27 27 26 26 25 25 24 23 22 21 20 20 21 21 22 22 21 20 18 17 15 13 12 11 10 9 8 6 6 5 5 4 5 5 6 6 7 8 9 10 11 13 14 15 16 17 18 19 22 24 25 27 28
19 19 18 17 17 17 18 16 13 13 15 18 19 20 21 23 24 25 27 28 29 29 29 29 29 29 29 29 29 28 28 27 27 26 25 24 24 23 23 22 22 22 22 22 23 23 22 21 21 19 17 15 14 12 11 10 8 7 6 5 5 4 4 4 5 5 6 7 7 8 9 10 11 13 15 16 17 18 19 20 21 22 23 24 25
18 19 18 17 16 16 16 15 13 12 14 17 19 21 22 23 25 26 28 28 29 29 29 30 30 29 29 29 29 29 28 27 26 25 24 23 23 23 23 24 24 24 24 24 23 22 21 20 19 18 16 14 13 11 9 8 7 6 5 4 4 4 4 4 5 5 6 7 8 9 10 10 11 13 14 16 18 18 20 21 21 23 24 23 24
18 18 18 17 16 16 16 15 14 13 13 16 19 21 23 24 25 26 27 28 29 29 30 30 30 29 29 28 29 29 28 27 26 25 24 24 24 24 25 26 26 26 25 24 23 21 20 18 17 16 15 14 12 10 8 7 6 5 4 4 3 3 4 5 5 5 6 7 8 9 10 11 11 13 14 16 17 18 19 20 22 24 24 23 22
17 18 19 18 17 16 17 16 14 14 13 14 19 22 23 25 26 26 27 28 28 29 29 29 29 29 28 28 29 29 28 27 26 25 25 24 24 24 25 26 26 26 25 23 22 21 20 18 16 15 13 12 11 9 8 6 5 4 4 3 3 4 4 4 4 5 6 7 8 9 10 11 12 13 14 16 17 17 18 19 21 22 23 23 24
18 18 18 19 18 17 17 16 15 16 15 14 18 22 24 25 26 26 27 28 28 28 29 29 29 29 29 29 30 30 29 27 25 25 24 23 22 23 24 25 25 25 24 23 21 20 19 17 16 14 12 11 10 8 7 6 5 4 3 3 3 3 3 3 4 6 6 7 9 9 10 11 12 13 14 16 17 18 18 20 21 22 24 26 27
18 17 18 19 18 17 17 17 16 17 17 16 17 22 24 25 25 26 27 27 28 29 29 30 30 30 31 31 31 31 30 27 25 24 23 21 20 20 21 22 23 23 23 22 20 19 18 17 15 13 11 10 9 7 6 5 4 3 3 2 2 2 2 2 4 6 6 7 8 9 9 10 11 12 14 15 17 18 20 21 22 23 25 26 27
18 17 17 18 18 17 18 18 16 17 19 18 19 22 25 26 26 27 28 29 30 30 32 33 32 31 31 30 30 30 29 27 24 22 21 19 18 18 18 19 20 20 20 20 19 18 17 16 14 12 10 9 8 6 5 4 3 3 2 1 1 1 1 1 3 5 5 6 8 8 9 10 11 13 14 15 17 18 20 21 22 23 25 26 26
18 16 16 17 18 18 18 18 17 18 20 20 20 22 24 26 27 28 29 30 32 33 33 34 33 31 30 29 28 27 26 25 23 21 20 18 17 17 16 16 17 18 18 17 17 16 15 14 12 11 9 8 7 5 4 3 3 2 2 1 1 1 1 3 4 5 6 7 8 9 10 11 12 13 14 15 16 18 19 20 21 22 24 25 25
19 16 16 17 18 19 19 19 18 19 20 21 21 22 24 25 27 29 30 32 33 33 33 32 32 31 29 28 28 26 25 24 22 21 20 19 17 17 15 15 15 16 17 17 16 14 13 12 11 9 8 7 5 4 4 3 2 2 1 1 1 2 4 5 6 7 8 9 9 10 11 12 12 13 13 14 16 17 17 19 20 21 22 24 25
19 16 15 16 18 20 19 19 19 19 20 20 21 22 24 26 28 29 31 31 31 31 30 30 29 29 28 27 27 27 26 25 23 21 20 19 18 16 16 15 15 15 15 16 15 13 12 11 10 9 7 6 5 4 3 2 1 1 1 2 3 4 5 7 8 9 10 10 11 12 13 13 13 13 14 15 15 16 17 18 19 20 21 22 23
18 16 14 15 17 19 19 18 19 20 21 20 21 22 24 26 28 29 30 30 30 29 29 28 27 27 27 26 25 25 25 25 24 23 21 20 18 17 16 16 15 14 14 14 13 12 11 10 9 8 6 5 4 4 3 2 1 2 3 4 5 7 8 9 10 11 12 12 13 14 14 15 15 15 15 15 16 17 17 18 18 19 20 20 20
17 15 13 13 16 19 19 17 19 22 21 20 21 23 24 25 27 28 29 29 29 28 27 27 26 26 26 25 24 24 24 24 24 24 22 21 19 18 17 15 15 13 12 11 11 11 9 8 8 7 6 5 4 4 3 2 2 4 5 6 7 9 10 11 12 12 12 13 14 15 15 16 17 17 17 17 18 18 18 18 19 19 19 20 20
15 14 11 11 15 18 17 16 20 22 22 21 22 24 25 25 26 27 27 27 28 27 27 26 26 26 26 26 25 25 24 23 22 22 21 20 19 18 17 15 14 12 11 11 11 10 8 8 8 7 6 5 4 3 2 3 4 5 6 7 9 10 11 11 12 13 13 14 15 16 16 17 18 18 19 19 19 20 20 19 19 19 20 21 21
14 12 9 9 14 17 15 15 19 22 22 22 24 25 25 26 26 26 25 25 25 26 26 26 26 26 26 26 26 24 23 22 20 19 19 18 18 17 16 15 13 12 11 11 10 8 8 8 7 6 5 4 3 3 3 4 5 7 8 9 10 11 11 12 13 14 14 15 16 16 17 17 18 18 19 20 20 20 21 21 21 21 21 22 22
12 10 7 8 14 16 14 15 19 22 23 23 24 25 26 26 26 26 25 24 25 25 25 25 25 25 25 26 25 24 22 21 20 19 18 16 16 15 14 13 12 11 9 9 8 7 7 7 6 5 4 3 3 4 5 6 7 8 9 10 11 11 12 13 14 15 15 16 16 16 16 17 17 18 18 19 20 20 21 22 23 23 23 24 25
11 9 7 8 13 15 15 16 20 22 23 24 24 25 25 25 25 25 24 23 23 24 24 24 24 23 23 24 23 22 21 20 18 17 16 14 13 12 11 10 9 8 7 7 7 6 6 5 5 4 4 4 5 6 7 7 8 9 10 11 11 12 13 13 14 14 15 15 15 15 16 16 17 17 18 19 20 21 21 22 24 25 25 26 28
11 9 8 9 13 15 15 17 20 22 23 24 24 25 24 24 24 24 24 22 21 21 22 23 23 22 22 22 20 20 19 18 16 15 14 13 12 10 9 8 8 7 6 6 5 5 4 4 4 4 5 5 6 7 7 8 9 10 10 11 11 12 12 13 13 13 14 14 15 15 16 17 18 18 19 20 21 22 23 24 25 27 27 28 30
11 10 9 11 14 15 16 18 20 22 24 24 25 26 26 25 24 24 23 21 20 19 19 20 21 20 20 20 18 17 16 15 14 13 12 12 11 9 8 7 6 5 5 4 3 3 4 4 4 5 5 6 7 7 8 9 9 10 10 11 11 11 12 12 13 14 14 15 16 17 18 19 20 20 21 22 23 24 25 26 27 28 29 30 31
11 10 11 13 15 16 18 20 21 22 24 24 24 25 26 26 25 24 23 21 19 17 17 17 18 17 16 16 16 15 14 13 13 12 11 10 9 7 6 5 4 3 3 3 3 4 5 5 6 6 6 7 8 8 8 9 9 10 10 10 11 12 12 13 14 14 15 16 17 18 19 20 21 22 23 24 25 26 26 27 28 29 29 31 32
10 10 11 15 17 18 18 20 21 22 22 22 22 22 23 23 23 23 23 22 21 20 19 19 18 16 15 14 14 14 13 12 11 10 9 8 7 5 5 4 3 3 3 3 4 5 6 6 7 7 7 8 8 8 8 9 9 10 10 11 12 12 13 14 15 15 16 17 18 19 20 21 23 24 24 25 26 27 27 27 28 29 30 30 31
9 10 11 15 18 20 19 19 20 20 20 20 21 21 21 21 21 21 20 20 19 18 18 18 17 17 16 16 14 13 12 11 10 9 8 7 6 5 4 3 3 3 4 4 5 6 7 7 7 8 8 8 8 8 8 9 9 9 10 11 12 13 14 15 16 17 18 19 19 20 21 22 23 23 24 24 25 26 27 27 28 28 29 30 31
6 8 10 15 18 20 21 20 19 19 19 19 19 19 18 18 18 18 18 17 15 15 15 15 14 13 13 13 13 12 12 11 10 8 7 6 5 4 4 3 4 4 5 5 6 6 6 7 7 7 7 8 8 8 8 9 9 10 11 12 13 14 15 16 17 17 18 19 19 20 21 21 22 23 23 24 24 24 25 26 27 28 29 30 31
2 4 7 12 15 18 20 20 19 18 17 17 16 16 15 15 15 15 15 15 14 14 13 13 12 11 10 10 10 10 10 9 9 7 6 5 5 5 4 4 4 5 4 4 5 6 6 6 7 7 7 8 8 8 9 9 10 10 11 12 13 14 15 16 17 17 18 19 19 20 20 21 21 22 22 23 23 24 25 25 26 27 28 29 31
1 3 6 8 11 14 16 17 18 17 16 16 15 15 14 14 14 14 14 13 12 12 12 11 10 10 10 9 9 8 8 8 7 7 6 5 5 5 5 4 4 4 4 4 5 5 5 6 6 7 7 8 8 9 9 10 10 11 11 12 13 14 15 16 17 17 18 18 19 19 19 20 20 21 21 22 22 23 24 25 26 27 27 29 30
2 3 6 8 9 11 12 14 15 15 15 15 15 15 14 14 14 13 13 12 11 10 10 10 9 9 8 8 8 8 7 7 7 6 5 5 5 5 4 4 4 4 4 5 5 5 6 6 7 7 8 8 9 9 10 10 11 11 12 12 13 14 15 16 17 17 18 18 18 18 18 19 20 20 21 22 22 23 24 24 25 26 27 28 30
5 5 7 8 9 10 11 12 13 14 14 14 14 13 14 14 13 13 12 11 10 10 9 8 8 7 7 7 7 7 7 7 6 6 5 5 4 3 3 3 4 4 5 5 5 5 6 6 7 7 8 8 9 9 10 10 10 11 12 13 13 14 15 16 17 17 17 17 17 18 18 19 19 19 20 21 22 23 24 24 26 27 28 29 30
7 6 7 8 9 10 10 11 12 12 12 12 12 12 12 12 11 11 11 10 10 9 8 8 7 7 7 7 7 6 6 6 6 5 4 4 3 3 3 3 4 4 4 5 5 6 6 7 7 7 8 8 9 9 10 11 11 11 12 12 13 14 15 16 16 16 16 17 17 17 18 18 19 19 20 21 22 23 24 25 26 27 29 30 31
8 7 7 7 9 9 9 10 10 10 10 11 10 10 10 10 9 9 9 9 8 8 8 7 7 6 6 6 6 5 5 5 4 4 3 3 3 3 3 4 4 4 5 5 6 6 6 7 7 8 8 9 9 10 10 11 12 12 12 13 13 14 15 15 16 16 16 16 17 17 17 18 19 19 20 20 21 23 24 25 26 26 27 29 30
8 7 6 7 8 8 8 8 9 9 9 9 9 9 8 8 8 8 8 8 7 7 7 6 6 6 6 5 5 5 4 4 4 3 3 3 3 3 3 4 4 4 5 5 6 6 7 7 8 8 9 9 10 11 11 12 12 13 13 13 13 13 14 15 16 16 16 16 16 17 17 18 19 20 20 21 22 22 23 24 25 26 27 28 29
7 6 6 6 6 6 6 6 7 8 8 7 7 7 7 7 7 7 7 7 7 6 6 6 6 6 5 5 5 5 4 4 4 3 3 3 3 4 4 4 4 5 5 6 6 7 8 8 9 9 10 10 11 12 12 12 13 13 13 12 13 13 14 14 15 16 16 16 17 18 18 19 20 20 21 22 23 24 24 25 25 26 27 29 30
5 5 5 5 5 4 4 5 5 6 6 6 6 6 6 6 6 6 6 6 6 6 6 6 6 5 5 5 4 4 3 3 3 3 3 3 3 4 4 5 5 5 6 7 7 8 8 9 9 10 10 10 11 12 12 12 12 13 13 12 12 13 14 14 15 16 17 17 18 19 19 20 21 21 22 23 24 25 25 26 27 28 29 30 31
4 4 4 4 4 4 3 4 4 4 4 5 5 5 5 5 5 5 5 5 5 5 5 5 5 4 4 4 3 3 3 3 3 3 3 4 4 5 5 6 6 6 7 7 7 8 8 9 9 10 10 10 11 11 12 13 13 13 13 13 13 14 15 16 16 17 18 19 20 20 21 22 22 23 23 24 25 26 27 28 29 29 30 31 32
2 2 2 2 3 3 3 3 3 3 3 3 4 4 4 4 4 4 4 4 4 4 4 4 4 4 4 4 3 4 4 4 4 4 4 5 5 6 6 7 7 7 8 8 8 8 8 8 9 9 10 11 11 12 12 13 14 14 15 15 15 15 16 17 18 19 20 21 22 23 23 24 24 24 25 25 26 27 29 29 30 30 31 32 33
1 1 1 1 1 2 2 2 2 2 3 3 3 3 4 4 4 4 4 4 4 4 4 4 3 4 4 4 4 4 5 5 5 5 6 6 6 6 7 7 8 8 8 9 9 9 9 9 9 9 10 11 12 12 13 14 14 15 16 17 17 18 18 19 20 20 21 23 24 25 25 26 26 26 26 27 28 29 29 30 30 31 32 33 34
2 1 1 1 1 1 1 1 2 2 2 3 3 3 3 3 4 4 4 4 4 4 4 4 5 5 5 5 5 6 6 6 6 7 7 7 7 7 8 8 8 9 10 10 10 10 10 10 11 11 11 11 12 13 13 14 15 16 17 18 19 20 20 21 21 22 22 24 25 26 27 27 27 27 27 28 29 29 30 31 31 32 32 33 34
3 3 2 2 2 2 2 2 2 3 3 3 3 4 4 4 4 5 5 5 5 5 5 5 6 6 6 6 7 7 7 7 8 8 8 8 9 9 9 9 10 10 10 11 11 12 12 12 13 13 13 13 13 14 14 15 16 16 17 18 19 20 21 22 23 23 24 25 26 27 28 28 28 28 28 29 30 31 31 32 32 32 33 34 34
5 4 4 4 4 4 3 4 4 4 4 4 4 5 5 5 5 6 6 6 6 6 7 7 7 7 7 8 8 8 8 8 9 9 9 10 10 10 10 10 11 11 11 12 12 13 14 14 14 14 15 15 15 15 16 16 17 17 17 18 19 20 21 22 23 24 25 26 27 28 28 28 28 28 29 29 30 31 32 32 33 33 34 34 35
6 6 6 6 6 5 5 5 5 5 5 5 6 6 6 6 6 7 7 7 7 8 8 8 8 8 9 9 9 9 10 10 10 11 11 11 12 12 12 12 12 12 13 13 14 14 15 15 16 16 16 16 16 17 17 17 18 18 18 19 20 21 21 22 23 24 25 27 28 28 28 28 28 29 29 30 31 31 32 32 33 34 34 35 35
8 8 8 8 8 7 7 7 7 7 7 7 7 7 7 8 8 8 8 8 9 9 9 9 10 10 10 10 11 11 11 12 12 12 13 13 13 14 14 14 14 14 14 15 15 16 16 17 17 17 17 17 17 18 19 19 19 19 20 20 21 22 22 22 23 24 25 27 28 28 28 29 29 30 30 30 31 32 32 32 33 34 34 35 35
Wind_Direction
334 336 336 337 335 329 323 317 315 313 310 305 296 283 273 272 271 268 263 260 257 255 252 246 238 234 233 229 224 218 211 209 211 211 214 216 217 215 213 210 207 206 206 206 205 206 208 211 213 216 220 224 228 235 242 249 256 263 266 268 271 268 264 255 244 247 256 267 277 282 284 287 293 302 308 308 308 314 327 337 345 347 353 2 5
335 337 337 335 337 336 331 324 319 317 314 310 303 290 272 267 269 268 265 262 257 253 253 248 240 234 231 225 220 216 213 212 215 217 220 220 216 212 211 209 207 207 208 208 205 204 206 209 211 212 213 215 220 227 234 243 252 259 264 267 267 266 265 260 254 255 258 267 276 279 284 289 289 288 282 271 301 355 7 11 15 13 12 15 15
333 334 338 338 337 336 333 329 324 320 317 312 307 297 279 267 267 267 266 264 260 253 250 248 241 233 227 222 217 214 213 214 217 222 224 221 216 213 211 208 207 208 210 209 207 205 206 208 210 211 212 214 219 225 232 240 249 255 261 264 267 268 268 265 261 257 251 253 256 254 258 258 231 53 62 73 51 35 27 25 26 23 18 18 19
332 330 333 339 342 339 334 330 327 322 318 313 306 299 288 277 272 270 266 263 260 254 249 244 237 229 223 218 214 212 213 217 220 223 221 216 213 213 211 207 206 209 211 211 210 209 209 210 212 213 216 219 223 228 234 240 247 253 258 262 265 265 265 260 247 232 222 204 178 179 173 124 87 52 47 47 42 36 29 26 27 23 19 16 16
334 329 328 333 341 342 336 330 327 323 318 312 305 297 290 284 277 272 266 259 255 252 246 240 233 226 219 215 213 213 217 221 221 218 212 209 210 211 209 207 207 210 212 213 213 213 212 213 215 217 218 222 227 231 233 238 243 247 248 250 247 236 222 195 168 164 169 158 134 118 97 68 48 32 26 22 23 30 29 28 26 19 15 12 10
334 328 325 329 336 340 337 331 326 322 316 311 304 296 288 282 276 269 262 256 251 246 239 233 227 221 217 213 212 216 220 221 217 210 207 206 207 208 208 210 211 212 213 214 214 214 213 214 215 216 218 222 226 228 228 228 229 227 220 205 180 162 152 142 137 136 134 124 110 96 75 50 30 14 12 9 5 5 10 22 27 20 12 6 3
330 326 323 325 329 333 334 330 325 320 314 308 301 294 286 278 270 264 257 251 245 240 233 226 219 215 213 212 215 220 221 216 209 206 206 207 207 208 210 212 212 211 211 210 210 211 211 212 213 213 214 217 217 214 208 201 191 176 161 150 140 134 132 128 124 121 113 101 90 77 55 37 26 15 11 8 4 2 3 3 9 12 10 5 359
327 323 319 321 323 326 327 325 321 317 311 305 298 291 284 275 266 258 251 244 238 233 228 221 215 212 212 214 217 219 214 210 207 206 207 208 208 210 212 212 210 208 207 207 208 209 209 208 208 205 200 196 190 180 168 160 155 148 138 131 127 123 121 117 112 106 94 80 67 53 39 25 19 13 7 2 1 5 7 4 359 1 5 5 359
322 318 315 316 317 318 319 317 315 312 306 300 295 288 279 271 261 251 244 238 232 227 222 218 216 214 215 216 216 213 209 208 209 209 209 210 209 209 209 208 206 206 207 207 205 204 203 198 190 182 173 164 157 151 145 141 140 139 131 124 121 117 111 107 101 93 81 69 58 44 27 11 8 9 5 5 6 4 2 0 357 357 358 1 3
317 313 310 311 312 310 310 309 306 305 301 294 288 282 274 266 257 247 239 232 227 223 219 217 217 217 217 215 212 208 206 207 209 210 211 210 208 206 204 203 204 206 208 205 199 193 186 178 167 158 152 148 146 144 141 138 137 134 129 123 120 112 104 97 85 75 64 52 42 31 18 8 7 8 5 6 7 2 356 355 355 355 353 353 0
312 308 305 305 305 303 301 299 297 295 292 286 280 274 267 260 252 243 236 229 223 219 217 216 215 215 214 211 207 204 204 206 208 208 207 207 206 205 204 204 202 201 201 196 188 178 169 162 155 150 147 146 145 144 142 139 136 132 126 122 115 105 95 84 66 54 44 32 26 21 14 8 4 3 1 360 0 359 356 353 351 353 354 352 354
306 302 299 297 296 294 291 288 286 284 281 275 269 264 258 252 245 238 231 224 219 215 213 211 210 209 209 206 203 202 202 203 203 203 201 201 202 203 202 200 194 188 185 180 173 167 162 158 154 150 149 147 145 144 141 137 133 128 122 116 106 93 81 67 50 40 31 22 17 13 10 6 359 354 352 352 354 354 352 350 349 351 354 353 352
301 297 293 290 287 285 281 277 272 269 266 262 258 253 248 242 236 231 225 219 215 211 207 205 203 202 202 201 200 198 196 195 194 195 195 194 195 195 192 186 179 173 170 167 164 162 160 158 155 151 149 147 145 143 140 136 131 124 118 109 95 82 69 55 41 31 23 15 9 6 6 4 357 351 348 347 348 348 346 347 347 348 350 351 350
295 291 288 283 278 274 270 265 257 250 248 248 246 243 238 233 228 224 219 214 209 205 201 199 197 195 194 194 193 191 188 187 186 185 185 184 184 184 178 171 165 163 162 161 161 159 157 156 156 153 150 148 145 143 139 135 130 123 117 106 89 74 58 47 37 28 20 12 7 4 2 1 356 349 345 343 343 345 344 343 343 343 346 347 345
288 285 282 277 270 264 259 254 245 235 230 233 235 233 230 226 222 217 214 209 204 200 196 193 191 188 187 187 186 183 179 177 175 173 173 172 172 172 168 163 161 160 158 158 158 156 154 155 156 155 152 148 145 143 139 133 130 124 115 102 87 66 50 46 37 25 17 11 8 3 357 356 353 346 341 340 341 343 342 340 339 338 339 338 336
279 277 276 272 265 257 250 244 235 226 218 218 224 225 223 221 217 212 208 204 200 196 192 189 186 184 184 183 181 176 169 166 165 164 164 164 166 167 165 163 163 161 158 158 158 157 155 154 154 154 153 150 146 142 139 135 130 123 112 98 83 57 42 43 33 17 12 8 2 358 354 351 347 341 339 338 338 338 336 334 332 330 330 328 327
272 270 270 267 260 251 242 235 227 219 211 208 215 218 217 216 213 208 204 200 196 192 189 186 184 181 180 179 176 169 161 158 158 158 159 161 164 167 166 165 165 162 159 160 160 158 157 155 155 156 154 153 149 145 143 139 131 123 109 94 78 50 33 37 23 6 5 2 354 352 351 345 340 336 335 334 332 331 330 328 327 326 326 326 326
267 263 262 261 257 247 235 227 219 214 208 202 206 213 213 212 209 205 203 200 195 191 188 185 181 178 174 171 169 164 157 154 154 155 156 159 164 168 169 168 165 163 161 161 161 161 160 157 158 159 156 155 153 150 148 143 138 133 121 110 83 53 41 29 8 357 358 356 349 345 341 336 335 332 330 329 328 327 326 326 325 325 325 328 328
266 260 257 256 253 245 231 220 213 210 206 200 200 207 210 209 206 203 201 199 193 188 184 180 175 171 167 164 162 159 154 151 152 154 155 157 163 169 172 171 167 164 164 163 163 164 162 159 159 160 159 160 159 156 155 151 147 142 137 134 57 40 58 3 351 351 351 346 340 337 334 333 333 330 327 326 324 323 323 322 322 322 323 326 327
270 261 255 252 251 243 227 215 210 208 205 200 198 201 205 206 204 200 195 191 186 179 175 172 168 164 161 159 158 156 153 151 152 155 156 158 162 169 173 175 171 166 164 165 166 166 162 159 160 161 161 165 163 160 161 158 154 157 157 162 338 347 330 335 343 344 343 341 337 334 333 332 330 327 324 322 319 317 317 316 317 318 319 322 324
273 263 254 250 248 241 225 211 207 207 204 200 196 196 197 196 194 190 184 180 176 171 167 166 164 161 158 158 157 155 153 152 154 157 159 161 164 167 170 173 173 169 166 166 167 166 163 160 161 163 166 169 167 163 167 171 172 176 195 284 320 327 329 336 339 337 337 338 335 332 332 329 327 324 320 317 314 312 311 313 314 315 318 321 322
272 262 253 247 246 238 222 208 204 205 203 199 196 194 191 184 178 175 172 169 167 165 164 163 162 160 158 159 160 159 158 158 158 160 161 163 163 165 166 167 169 169 169 170 169 166 164 162 162 166 168 169 170 174 180 188 203 237 287 310 321 328 331 331 332 333 336 336 333 330 329 326 323 321 317 315 313 311 310 311 312 314 317 320 321
271 260 249 245 243 234 218 204 200 202 200 197 196 195 189 179 172 168 165 164 165 166 165 164 163 161 160 160 162 163 164 164 163 162 162 162 160 161 164 166 167 168 172 173 168 164 164 163 164 169 171 171 178 189 199 213 254 292 309 321 326 328 331 331 332 333 333 331 328 325 324 322 321 319 318 316 314 313 313 312 312 312 312 314 315
268 255 243 241 240 230 215 200 197 197 194 193 195 194 187 179 172 169 167 168 170 170 168 168 167 165 163 162 163 164 166 167 167 165 162 161 160 161 165 168 169 169 173 173 168 165 167 167 169 175 178 181 190 200 216 248 284 306 317 324 325 326 327 327 326 326 324 322 322 321 321 322 321 321 321 320 318 318 317 315 313 311 309 309 310
264 249 234 235 236 226 212 198 194 192 189 191 194 191 185 179 174 172 172 173 173 171 167 166 166 164 162 160 161 162 164 165 165 164 162 161 163 165 167 169 170 170 173 176 173 172 173 173 176 182 186 191 202 214 245 279 298 308 312 315 316 317 318 318 317 318 318 319 320 322 323 324 324 324 323 322 322 320 318 316 312 310 308 307 306
259 241 223 227 230 221 205 193 191 188 187 190 192 189 184 181 178 176 175 175 174 171 168 166 165 163 161 159 159 160 160 161 162 163 163 163 165 167 168 170 172 174 176 180 180 178 178 178 181 187 194 202 220 245 274 289 297 302 306 308 310 312 314 314 315 316 318 320 322 323 325 324 324 325 324 322 322 320 318 316 313 311 309 306 305
254 233 209 217 223 213 195 186 185 184 186 190 190 187 183 181 181 178 176 175 173 169 166 166 165 164 162 160 160 160 160 161 161 161 162 164 165 167 168 169 172 175 178 183 185 182 180 182 188 196 208 228 253 270 283 290 295 300 303 305 308 310 311 312 315 317 319 321 322 322 323 323 322 322 322 321 320 320 319 318 316 315 314 311 309
247 220 192 204 216 205 185 178 179 179 183 188 188 185 183 182 181 178 175 175 172 168 166 165 163 164 163 161 161 160 160 162 162 161 161 162 165 167 168 169 174 179 184 190 192 189 188 192 203 216 232 253 267 277 286 291 295 298 301 304 306 309 310 312 315 317 318 319 319 320 321 320 320 320 320 320 321 321 321 320 319 319 319 318 316
237 207 179 190 206 197 179 173 174 174 178 182 184 182 181 181 181 178 175 175 172 169 167 164 163 164 163 160 160 161 162 162 162 161 160 161 165 168 169 173 179 185 192 196 195 199 206 214 228 245 258 269 278 285 290 293 297 299 301 303 305 307 309 311 313 314 315 315 317 318 318 318 319 320 320 321 321 322 322 322 321 321 321 320 319
228 197 172 179 194 189 174 168 169 171 172 176 180 181 179 179 179 177 175 175 174 173 169 165 163 163 162 160 159 162 164 163 162 162 163 164 166 168 170 175 179 186 199 207 209 225 247 258 265 273 279 283 287 291 292 294 296 297 299 301 303 305 307 309 311 313 314 315 317 318 319 320 321 321 321 321 322 322 323 322 321 321 320 319 317
227 195 169 172 182 181 173 167 166 169 171 171 175 178 178 177 177 174 172 171 171 170 168 164 160 159 161 163 162 162 165 164 163 167 168 164 164 169 171 175 182 197 218 235 250 263 273 279 281 283 285 285 287 289 290 292 295 296 298 301 303 305 308 310 311 313 314 316 318 319 320 321 321 321 321 321 321 321 320 320 319 318 318 317 316
236 202 171 167 173 175 174 168 165 166 169 169 170 174 176 176 176 174 173 172 171 169 165 162 159 158 159 162 162 163 165 162 162 171 171 160 159 169 175 180 195 220 240 252 263 272 276 280 282 284 284 284 286 287 287 290 293 295 299 303 305 307 309 310 312 313 315 317 318 319 319 319 319 319 319 319 319 319 318 318 319 318 318 317 317
247 214 177 165 168 171 173 171 168 166 166 167 169 171 173 175 174 172 170 170 170 168 165 163 164 164 163 162 162 163 163 160 163 174 172 158 159 174 187 199 214 231 243 253 263 270 274 276 278 279 280 281 283 285 287 290 293 297 301 304 306 308 310 311 313 315 316 317 317 317 317 317 317 317 317 318 319 319 319 320 320 320 320 319 317
250 219 182 166 167 170 171 172 172 170 167 167 167 168 169 171 170 167 164 162 161 159 157 158 160 162 163 165 165 165 164 163 169 179 176 163 168 186 202 218 234 241 246 254 262 267 270 272 273 275 277 280 283 286 290 295 299 302 305 306 307 309 310 311 313 314 314 315 315 315 315 315 315 316 317 318 320 321 322 323 323 323 324 323 321
241 207 177 165 167 170 171 173 174 174 173 171 169 170 172 171 169 167 165 163 160 157 154 154 155 155 157 159 161 164 167 168 174 183 185 178 181 195 207 222 238 245 247 251 258 263 267 269 271 274 278 281 285 289 292 296 298 301 303 304 306 308 308 309 310 310 310 311 312 313 314 314 315 317 319 321 323 324 325 327 327 327 327 326 324
119 167 157 153 157 162 166 169 171 172 173 172 170 171 172 170 167 165 161 157 156 155 153 153 154 155 157 158 159 162 168 172 178 186 191 189 190 196 204 215 230 241 247 253 257 261 266 269 273 277 280 282 286 289 291 294 297 299 301 303 305 306 307 307 307 308 309 311 312 313 315 316 317 319 321 323 326 328 328 329 330 329 329 328 326
79 136 136 133 136 142 149 156 160 162 165 166 166 166 164 161 160 158 155 152 152 152 153 153 155 156 159 161 164 167 171 176 181 185 189 194 198 201 203 212 225 234 242 250 254 258 264 269 274 277 282 285 288 290 293 297 299 301 303 304 305 305 305 305 306 307 309 312 313 314 316 317 318 321 324 325 328 329 330 331 330 329 329 328 326
70 102 117 119 121 126 135 143 148 152 155 156 156 156 155 154 153 151 150 151 150 150 153 154 157 161 164 167 171 175 178 182 185 187 191 195 201 206 211 219 230 239 245 251 257 261 267 273 277 280 284 288 290 293 296 299 300 302 303 303 304 304 304 305 307 308 310 312 313 313 315 317 320 323 325 327 328 329 330 331 331 330 329 328 328
65 79 97 105 109 115 123 130 134 138 142 144 145 146 147 148 147 147 149 150 150 152 155 157 160 166 170 173 177 181 183 186 188 188 190 195 201 214 228 239 250 258 261 264 268 271 274 278 282 285 288 290 292 294 296 297 298 299 300 300 301 302 303 304 305 306 308 309 311 312 314 317 321 325 327 328 329 330 331 332 332 331 329 328 327
65 69 78 90 98 104 110 115 121 127 130 132 135 137 139 140 141 143 145 146 149 152 156 160 164 168 171 176 182 183 185 188 188 187 193 206 219 230 240 250 260 265 269 272 275 277 280 282 284 287 289 290 291 292 293 294 296 296 297 299 300 300 301 301 301 303 305 308 310 313 316 320 323 325 328 329 329 330 331 332 331 331 328 327 326
67 69 73 82 90 96 102 111 118 121 123 126 127 130 133 137 138 140 142 145 150 155 158 162 167 170 174 179 183 182 184 188 190 195 205 217 229 238 245 250 258 264 270 274 277 279 281 283 285 286 288 289 291 292 292 294 295 296 297 299 299 299 299 300 300 303 306 309 312 316 319 322 325 326 328 330 330 331 332 331 329 329 328 328 328
70 72 75 79 84 91 104 117 121 120 120 124 128 132 138 140 139 142 147 149 154 159 161 165 170 172 176 181 181 183 189 193 196 204 215 222 232 244 252 258 263 267 270 275 278 280 283 284 285 287 289 290 291 292 293 294 295 296 296 297 297 298 298 299 301 305 309 312 315 319 321 323 325 326 328 330 330 330 330 329 328 329 329 329 329
76 81 83 85 89 97 107 115 118 119 124 131 134 139 143 143 146 152 156 157 161 164 165 168 172 174 176 180 182 185 194 202 208 219 231 240 248 255 260 262 265 268 270 272 275 277 279 282 283 285 287 288 289 290 291 290 291 292 292 294 296 298 299 301 304 308 311 313 316 318 320 322 323 325 327 329 328 327 327 328 328 330 331 329 328
73 83 89 95 102 107 110 113 117 122 133 141 145 148 151 153 157 161 161 162 166 168 168 172 175 178 182 187 192 199 208 219 230 239 248 254 259 264 266 267 269 269 268 268 269 270 273 277 279 281 284 285 285 287 288 288 290 291 292 296 299 300 302 304 307 309 312 313 314 317 318 320 322 324 326 326 326 325 326 329 330 330 329 328 327
57 75 91 101 109 115 120 127 134 142 149 153 154 158 161 163 165 167 167 170 172 173 177 183 186 191 199 205 210 218 226 233 240 247 253 258 262 266 269 271 273 273 272 272 272 272 272 274 275 279 282 285 286 289 290 292 294 296 297 299 302 302 303 306 308 311 313 313 314 316 318 319 321 324 324 324 326 326 327 328 328 327 326 327 327
10 43 81 105 124 134 141 149 157 162 166 169 172 175 175 177 179 179 181 184 186 189 196 204 208 215 224 229 234 239 243 247 251 255 258 260 262 266 269 271 273 275 276 277 277 277 277 277 276 277 279 282 285 289 291 293 295 298 300 302 304 305 306 308 309 311 312 312 313 315 316 317 319 322 323 324 326 325 325 325 326 325 326 326 326
313 306 288 258 220 207 202 199 197 199 200 198 201 201 200 201 204 205 206 211 213 215 219 224 228 233 238 241 244 249 251 253 256 258 259 261 262 263 265 268 270 272 275 277 278 279 281 281 281 280 280 281 283 287 290 293 296 299 301 303 305 306 307 308 309 310 310 310 311 312 313 314 317 321 323 324 323 322 322 324 324 324 324 324 324
297 291 281 271 259 250 246 238 238 238 236 232 230 228 226 226 226 226 228 230 232 234 236 238 240 243 245 247 249 251 252 255 257 258 259 261 262 262 264 265 268 270 274 277 281 283 284 285 286 287 288 288 288 289 290 292 295 298 300 302 304 305 306 306 308 309 309 309 310 311 311 314 318 320 321 321 321 321 322 323 322 322 322 322 322
289 283 280 276 270 261 257 254 252 251 250 250 250 248 245 244 240 239 240 240 240 241 243 243 244 247 248 249 251 252 252 255 257 259 261 262 264 265 266 268 270 272 275 277 280 283 285 286 288 289 289 289 290 290 290 291 293 296 299 301 302 303 305 307 308 310 310 309 309 310 311 313 316 317 317 318 319 319 320 320 319 319 320 320 321
281 278 276 275 272 268 265 263 260 256 255 256 256 256 257 257 255 251 250 248 247 246 245 245 245 247 248 249 251 253 254 256 258 260 262 264 265 266 268 269 270 272 272 273 275 278 280 282 284 285 286 288 289 290 291 292 294 295 298 299 300 302 305 307 309 310 309 308 307 309 310 312 314 314 315 316 317 317 317 317 317 317 318 318 319
277 276 275 274 272 270 268 267 267 265 263 260 260 260 260 261 262 261 260 258 256 255 254 253 252 252 252 252 253 254 255 257 259 260 262 264 265 266 267 268 269 270 271 272 273 275 277 279 282 284 285 287 288 290 291 292 294 295 297 298 299 301 303 306 307 307 306 306 307 309 311 313 313 312 313 314 314 314 315 315 315 315 316 316 318